{"data":{"norad_id":67704,"intl_designator":"2026-025M","name":"STARLINK-36338","alt_names":[],"object_type":"PAYLOAD","status":"ACTIVE","operator":null,"country":"US","launch_date":"2026-02-07","launch_site_code":"AFWTR","launch_vehicle":null,"mission":null,"orbit_class":"UNKNOWN","rcs_meters":null,"size_class":null,"mass_kg":null,"dimensions":null,"purposes":["comms"],"wikipedia_slug":null,"has_3d_model":false,"image_url":null,"decayed_at":null,"tle_current":{"epoch":"2026-09-19T06:29:18.654720Z","epoch_age_seconds":175147,"freshness":"STALE","line1":"1 67704U 26025M   26262.27035480  .00014213  00000+0  44174-3 0  9999","line2":"2 67704  97.2846  12.1331 0000235 316.3813  43.7411 15.33444730 35673","mean_motion":15.3344473,"eccentricity":2.35e-5,"inclination_deg":97.2846,"raan_deg":12.1331,"arg_perigee_deg":316.3813,"mean_anomaly_deg":43.7411,"bstar":0.00044174,"rev_number":3567,"period_min":93.906221191291,"perigee_km":465.38315130531,"apogee_km":465.70480431127,"semimajor_km":6843.6809778083,"source":"CELESTRAK","updated_at":"2026-09-20T09:00:43.653139Z"}}}